GW1690 Weather Reports


Display with metric or nautical units.
time (UTC)temp
F
wind
direction
speed
MPH
gust
MPH
rain 1hr
in
rain 24hr
in
rain mn
in
humidity
%
barometer
mb
20260904174521 102 254 2.0 4.0 0.00 0.00 0.00 39 1010.8
20260904174024 102 217 1.0 5.0 0.00 0.00 0.00 41 1011.1
20260904173523 103 141 2.0 4.0 0.00 0.00 0.00 39 1011.0
20260904173022 103 217 2.0 6.0 0.00 0.00 0.00 38 1010.7
20260904172522 103 240 1.0 4.0 0.00 0.00 0.00 39 1011.0
20260904172022 103 165 1.0 4.0 0.00 0.00 0.00 38 1010.9
20260904171522 103 254 1.0 4.0 0.00 0.00 0.00 38 1010.8
20260904171043 102 274 1.0 3.0 0.00 0.00 0.00 39 1010.6
20260904170522 101 253 1.0 3.0 0.00 0.00 0.00 41 1011.2
20260904170023 101 236 1.0 4.0 0.00 0.00 0.00 42 1011.3
20260904165523 100 179 1.0 4.0 0.00 0.00 0.00 43 1011.4
20260904165023 100 268 1.0 4.0 0.00 0.00 0.00 43 1011.6
20260904164523 100 153 2.0 5.0 0.00 0.00 0.00 44 1011.9
20260904164043 100 159 1.0 3.0 0.00 0.00 0.00 44 1011.9
20260904163523 100 232 2.0 5.0 0.00 0.00 0.00 43 1011.8
20260904163023 99 283 1.0 5.0 0.00 0.00 0.00 44 1011.8
20260904162523 98 162 1.0 4.0 0.00 0.00 0.00 47 1012.5
20260904162024 97 265 1.0 3.0 0.00 0.00 0.00 48 1012.6
20260904161526 96 166 1.0 4.0 0.00 0.00 0.00 50 1013.1
20260904161024 96 142 2.0 4.0 0.00 0.00 0.00 51 1013.2
20260904160524 96 146 2.0 4.0 0.00 0.00 0.00 50 1013.2
20260904160021 95 167 2.0 5.0 0.00 0.00 0.00 50 1013.2
20260904155521 95 226 2.0 6.0 0.00 0.00 0.00 51 1013.3
20260904155022 95 169 2.0 7.0 0.00 0.00 0.00 50 1013.1
20260904154525 95 151 1.0 3.0 0.00 0.00 0.00 51 1013.2
20260904154027 94 147 1.0 5.0 0.00 0.00 0.00 52 1013.3
20260904153524 94 174 1.0 4.0 0.00 0.00 0.00 52 1013.4
20260904153025 93 164 2.0 4.0 0.00 0.00 0.00 53 1013.5
20260904152526 94 155 2.0 5.0 0.00 0.00 0.00 52 1013.4
20260904152021 94 166 2.0 6.0 0.00 0.00 0.00 52 1013.4
20260904151522 94 187 1.0 3.0 0.00 0.00 0.00 53 1013.5
20260904151023 93 175 2.0 4.0 0.00 0.00 0.00 53 1013.5
20260904150522 94 152 2.0 7.0 0.00 0.00 0.00 53 1013.4
20260904150022 93 208 1.0 5.0 0.00 0.00 0.00 53 1013.4
20260904145543 93 164 2.0 5.0 0.00 0.00 0.00 54 1013.6
20260904145022 92 258 1.0 3.0 0.00 0.00 0.00 55 1013.7
20260904144535 92 142 2.0 5.0 0.00 0.00 0.00 56 1013.8
20260904144042 91 205 1.0 3.0 0.00 0.00 0.00 56 1013.9
20260904143522 90 186 2.0 3.0 0.00 0.00 0.00 58 1014.6
20260904143021 89 166 1.0 4.0 0.00 0.00 0.00 59 1016.4
20260904142543 89 169 1.0 2.0 0.00 0.00 0.00 60 1017.9
20260904142022 88 157 2.0 3.0 0.00 0.00 0.00 62 1020.1
20260904141522 87 176 1.0 3.0 0.00 0.00 0.00 62 1023.5
20260904141025 87 195 2.0 3.0 0.00 0.00 0.00 63 1026.3
20260904140604 86 223 2.0 3.0 0.00 0.00 0.00 64 1028.9
20260904140026 86 183 2.0 3.0 0.00 0.00 0.00 64 1030.7
20260904135523 85 198 2.0 3.0 0.00 0.00 0.00 65 1033.5
20260904135023 85 183 2.0 4.0 0.00 0.00 0.00 66 1035.9
20260904134523 84 179 2.0 3.0 0.00 0.00 0.00 67 1042.3
20260904134025 84 190 1.0 2.0 0.00 0.00 0.00 68 1045.4
20260904133523 84 187 1.0 2.0 0.00 0.00 0.00 68 1047.4
20260904133024 83 137 1.0 2.0 0.00 0.00 0.00 68 1008.1
20260904132525 83 180 1.0 2.0 0.00 0.00 0.00 69 858.3
20260904132024 82 149 1.0 2.0 0.00 0.00 0.00 69 858.2
20260904131523 82 181 2.0 3.0 0.00 0.00 0.00 70 858.2
20260904131023 81 179 1.0 2.0 0.00 0.00 0.00 71 858.1
20260904130523 81 193 1.0 2.0 0.00 0.00 0.00 72 858.1
20260904130025 81 211 1.0 2.0 0.00 0.00 0.00 73 858.0
20260904125527 80 203 1.0 2.0 0.00 0.00 0.00 74 858.0
20260904125024 80 182 1.0 2.0 0.00 0.00 0.00 75 858.0
20260904124524 79 206 1.0 1.0 0.00 0.00 0.00 75 857.9
20260904124026 79 208 1.0 1.0 0.00 0.00 0.00 76 857.9
20260904123524 79 206 1.0 1.0 0.00 0.00 0.00 77 857.9
20260904123024 79 213 1.0 1.0 0.00 0.00 0.00 76 857.9
20260904122524 79 206 0.0 1.0 0.00 0.00 0.00 77 857.9
20260904122025 78 0.0 0.0 0.00 0.00 0.00 77 857.9
20260904121524 78 0.0 0.0 0.00 0.00 0.00 77 857.9
20260904121104 78 0.0 0.0 0.00 0.00 0.00 77 857.9
20260904120525 79 0.0 0.0 0.00 0.00 0.00 77 857.9
20260904120025 79 0.0 0.0 0.00 0.00 0.00 76 857.9
20260904115524 79 214 0.0 0.0 0.00 0.00 0.00 76 857.9
20260904115027 79 227 1.0 1.0 0.00 0.00 0.00 75 857.9
20260904114528 79 232 1.0 2.0 0.00 0.00 0.00 75 857.9
20260904114047 79 241 2.0 2.0 0.00 0.00 0.00 75 902.4
20260904113525 79 235 2.0 2.0 0.00 0.00 0.00 75 1078.1
20260904113025 79 229 1.0 2.0 0.00 0.00 0.00 74 1076.6
20260904112526 79 228 1.0 2.0 0.00 0.00 0.00 74 1076.3
20260904112026 79 230 1.0 2.0 0.00 0.00 0.00 74 1075.4
20260904111528 79 224 1.0 2.0 0.00 0.00 0.00 74 1073.7
20260904111048 79 224 1.0 1.0 0.00 0.00 0.00 74 1074.0
20260904110547 79 219 1.0 2.0 0.00 0.00 0.00 74 1073.5
20260904110025 80 212 1.0 1.0 0.00 0.00 0.00 74 1073.7
20260904105526 80 221 1.0 1.0 0.00 0.00 0.00 73 1072.3
20260904105047 80 221 1.0 2.0 0.00 0.00 0.00 73 1072.5
20260904104526 80 215 1.0 1.0 0.00 0.00 0.00 73 1071.9
20260904104026 80 216 1.0 2.0 0.00 0.00 0.00 73 1071.4
20260904103527 80 219 1.0 2.0 0.00 0.00 0.00 73 1070.0
20260904103047 80 220 1.0 1.0 0.00 0.00 0.00 73 1069.4
20260904102547 80 222 1.0 2.0 0.00 0.00 0.00 72 1067.7
20260904102047 80 197 1.0 1.0 0.00 0.00 0.00 72 1067.3
20260904101527 80 213 1.0 1.0 0.00 0.00 0.00 72 1066.4
20260904101026 80 225 1.0 2.0 0.00 0.00 0.00 72 1066.0
20260904100527 80 217 1.0 2.0 0.00 0.00 0.00 72 1065.6
20260904100047 80 218 1.0 2.0 0.00 0.00 0.00 72 1065.0
20260904095527 81 213 1.0 2.0 0.00 0.00 0.00 72 1066.0
20260904095027 81 207 1.0 2.0 0.00 0.00 0.00 72 1065.7
20260904094528 81 225 1.0 2.0 0.00 0.00 0.00 72 1064.0
20260904094031 81 226 1.0 2.0 0.00 0.00 0.00 71 1063.7
20260904093528 81 231 2.0 3.0 0.00 0.00 0.00 71 1062.3
20260904093028 81 225 1.0 2.0 0.00 0.00 0.00 70 1058.3
20260904092528 81 213 1.0 2.0 0.00 0.00 0.00 70 1058.6
20260904092027 81 211 1.0 2.0 0.00 0.00 0.00 70 1058.3
20260904091528 81 201 1.0 2.0 0.00 0.00 0.00 71 1059.7
20260904091028 82 201 1.0 2.0 0.00 0.00 0.00 70 1059.4
20260904090530 82 200 1.0 2.0 0.00 0.00 0.00 70 1059.0
20260904090030 82 179 1.0 2.0 0.00 0.00 0.00 70 1059.3
20260904085552 81 189 1.0 2.0 0.00 0.00 0.00 71 1060.3
20260904085048 81 180 1.0 2.0 0.00 0.00 0.00 71 1061.6
20260904084529 81 195 1.0 2.0 0.00 0.00 0.00 71 1062.9
20260904084030 82 184 1.0 2.0 0.00 0.00 0.00 71 1064.8
20260904083528 82 201 1.0 2.0 0.00 0.00 0.00 71 1064.0
20260904083048 82 187 1.0 2.0 0.00 0.00 0.00 71 1064.1
20260904082529 82 202 1.0 2.0 0.00 0.00 0.00 71 1063.5
20260904082029 82 214 1.0 2.0 0.00 0.00 0.00 71 1062.9
20260904081529 82 213 1.0 2.0 0.00 0.00 0.00 71 1062.4
20260904081050 82 203 1.0 2.0 0.00 0.00 0.00 71 1063.6
20260904080529 82 205 1.0 1.0 0.00 0.00 0.00 71 1061.9
20260904080030 82 194 1.0 2.0 0.00 0.00 0.00 70 1059.9
20260904075531 82 211 1.0 1.0 0.00 0.00 0.00 70 1058.9
20260904075030 83 188 1.0 1.0 0.00 0.00 0.00 70 1057.7
20260904074529 83 182 1.0 2.0 0.00 0.00 0.00 70 1057.3
20260904074029 83 210 1.0 1.0 0.00 0.00 0.00 70 1056.1
20260904073532 83 205 1.0 1.0 0.00 0.00 0.00 69 1054.9
20260904073030 83 207 1.0 2.0 0.00 0.00 0.00 69 1054.3
20260904072531 83 218 1.0 2.0 0.00 0.00 0.00 69 1051.6
20260904072033 83 210 1.0 2.0 0.00 0.00 0.00 68 1050.5
20260904071531 83 136 1.0 1.0 0.00 0.00 0.00 68 1050.3
20260904071050 83 200 1.0 2.0 0.00 0.00 0.00 68 1049.1
20260904070532 84 204 1.0 2.0 0.00 0.00 0.00 68 1049.1
20260904070031 84 200 1.0 2.0 0.00 0.00 0.00 68 1048.9
20260904065532 84 193 1.0 2.0 0.00 0.00 0.00 68 1048.3
20260904065030 84 184 1.0 2.0 0.00 0.00 0.00 68 1048.0
20260904064530 84 181 1.0 2.0 0.00 0.00 0.00 68 1048.2
20260904064031 84 192 1.0 2.0 0.00 0.00 0.00 68 1047.9
20260904063532 84 187 1.0 2.0 0.00 0.00 0.00 67 1046.4
20260904063030 84 167 1.0 2.0 0.00 0.00 0.00 67 1045.2
20260904062531 84 180 1.0 2.0 0.00 0.00 0.00 67 1045.0
20260904062031 84 190 1.0 2.0 0.00 0.00 0.00 67 1044.4
20260904061531 85 146 1.0 2.0 0.00 0.00 0.00 67 1043.4
20260904061033 85 207 1.0 2.0 0.00 0.00 0.00 66 1041.7
20260904060531 85 142 1.0 2.0 0.00 0.00 0.00 66 1040.6
20260904060031 85 186 1.0 2.0 0.00 0.00 0.00 66 1039.3
20260904055532 85 170 1.0 2.0 0.00 0.00 0.00 66 1038.7
20260904055031 85 172 1.0 2.0 0.00 0.00 0.00 66 1038.3
20260904054554 85 177 1.0 2.0 0.00 0.00 0.00 65 1036.9
20260904054052 85 187 1.0 2.0 0.00 0.00 0.00 65 1036.2
20260904053533 86 169 1.0 2.0 0.00 0.00 0.00 65 1035.7
20260904053032 86 166 2.0 3.0 0.00 0.00 0.00 65 1036.4
20260904052533 86 178 1.0 2.0 0.00 0.00 0.00 65 1036.3
20260904052032 86 175 1.0 3.0 0.00 0.00 0.00 65 1035.2
20260904051523 86 188 1.0 2.0 0.00 0.00 0.00 65 1035.1
20260904051024 86 192 1.0 2.0 0.00 0.00 0.00 65 1035.4
20260904050524 86 190 1.0 2.0 0.00 0.00 0.00 65 1034.9
20260904050023 86 173 1.0 2.0 0.00 0.00 0.00 64 1033.8
20260904045520 86 180 1.0 3.0 0.00 0.00 0.00 64 1032.8
20260904045041 87 164 1.0 3.0 0.00 0.00 0.00 64 1031.5
20260904044525 87 169 2.0 3.0 0.00 0.00 0.00 63 1031.0
20260904044024 87 179 2.0 4.0 0.00 0.00 0.00 63 1030.7
20260904043524 87 162 2.0 4.0 0.00 0.00 0.00 63 1030.6
20260904043023 87 170 2.0 4.0 0.00 0.00 0.00 63 1030.8
20260904042524 87 186 1.0 2.0 0.00 0.00 0.00 63 1030.7
20260904042105 87 186 1.0 4.0 0.00 0.00 0.00 63 1030.3
20260904041521 87 194 1.0 2.0 0.00 0.00 0.00 63 1029.7
20260904041021 87 184 1.0 2.0 0.00 0.00 0.00 63 1029.0
20260904040521 87 171 1.0 3.0 0.00 0.00 0.00 62 1027.8
20260904040021 87 218 1.0 2.0 0.00 0.00 0.00 62 1026.4
20260904035604 87 185 1.0 3.0 0.00 0.00 0.00 62 1025.9
20260904035026 87 196 1.0 2.0 0.00 0.00 0.00 61 1025.2
20260904034605 88 206 1.0 2.0 0.00 0.00 0.00 61 1024.0
20260904034023 88 195 1.0 2.0 0.00 0.00 0.00 61 1023.1
20260904033521 88 205 1.0 2.0 0.00 0.00 0.00 60 1021.9
20260904033021 88 194 1.0 3.0 0.00 0.00 0.00 60 1021.3
20260904032523 88 219 1.0 2.0 0.00 0.00 0.00 60 1020.5
20260904032044 88 207 1.0 3.0 0.00 0.00 0.00 59 1019.8
20260904031523 88 175 1.0 2.0 0.00 0.00 0.00 59 1019.4
20260904031023 89 184 1.0 3.0 0.00 0.00 0.00 59 1019.0
20260904030543 89 166 1.0 3.0 0.00 0.00 0.00 59 1018.7
20260904030043 89 159 1.0 4.0 0.00 0.00 0.00 59 1018.7
20260904025553 89 173 2.0 4.0 0.00 0.00 0.00 59 1018.8
20260904025022 89 172 1.0 3.0 0.00 0.00 0.00 59 1018.9
20260904024524 89 187 1.0 2.0 0.00 0.00 0.00 59 1018.9
20260904024022 89 160 1.0 4.0 0.00 0.00 0.00 59 1019.1
20260904023543 89 186 1.0 2.0 0.00 0.00 0.00 59 1018.8
20260904023023 89 191 1.0 2.0 0.00 0.00 0.00 58 1018.5
20260904022522 89 191 1.0 3.0 0.00 0.00 0.00 58 1017.7
20260904022045 89 197 1.0 2.0 0.00 0.00 0.00 57 1017.0
20260904021524 89 181 1.0 3.0 0.00 0.00 0.00 56 1016.0
20260904021023 89 182 1.0 3.0 0.00 0.00 0.00 56 1015.3
20260904020523 89 175 1.0 4.0 0.00 0.00 0.00 55 1015.1
20260904020024 90 215 1.0 2.0 0.00 0.00 0.00 55 1014.6
20260904015523 90 228 1.0 2.0 0.00 0.00 0.00 54 1014.2
20260904015043 90 227 1.0 2.0 0.00 0.00 0.00 54 1014.0
20260904014524 90 223 1.0 2.0 0.00 0.00 0.00 54 1013.7
20260904014022 91 226 1.0 2.0 0.00 0.00 0.00 53 1013.5
20260904013522 91 240 1.0 1.0 0.00 0.00 0.00 53 1013.2
20260904013021 91 226 1.0 2.0 0.00 0.00 0.00 52 1013.0
20260904012524 91 224 1.0 1.0 0.00 0.00 0.00 52 1012.8
20260904012024 91 216 1.0 1.0 0.00 0.00 0.00 51 1012.6
20260904011524 92 243 1.0 1.0 0.00 0.00 0.00 51 1012.4
20260904011026 92 217 1.0 1.0 0.00 0.00 0.00 50 1012.2
20260904010526 92 230 1.0 1.0 0.00 0.00 0.00 49 1011.9
20260904010043 92 229 1.0 1.0 0.00 0.00 0.00 49 1011.8
20260904005523 93 256 0.0 1.0 0.00 0.00 0.00 49 1011.7
20260904005041 93 248 0.0 1.0 0.00 0.00 0.00 48 1011.5
20260904004523 93 227 0.0 1.0 0.00 0.00 0.00 48 1011.4
20260904004022 93 190 0.0 0.0 0.00 0.00 0.00 48 1011.3
20260904003524 94 170 0.0 2.0 0.00 0.00 0.00 47 1011.1
20260904003027 94 187 0.0 1.0 0.00 0.00 0.00 47 1011.0
20260904002525 94 265 0.0 1.0 0.00 0.00 0.00 46 1010.8
20260904002022 94 172 0.0 1.0 0.00 0.00 0.00 46 1010.7
20260904001524 95 204 0.0 2.0 0.00 0.00 0.00 46 1010.7
20260904001022 95 247 0.0 1.0 0.00 0.00 0.00 45 1010.5
20260904000523 95 254 0.0 2.0 0.00 0.00 0.00 45 1010.3
20260904000024 95 264 0.0 2.0 0.00 0.00 0.00 44 1010.2
20260903235522 96 236 0.0 2.0 0.00 0.00 0.00 44 1010.0
20260903235022 96 286 0.0 2.0 0.00 0.00 0.00 43 1010.0
20260903234524 96 277 0.0 3.0 0.00 0.00 0.00 43 1009.9
20260903234022 96 272 0.0 2.0 0.00 0.00 0.00 42 1009.7
20260903233522 97 230 1.0 3.0 0.00 0.00 0.00 42 1009.6
20260903233044 97 239 1.0 2.0 0.00 0.00 0.00 41 1009.4
20260903232522 97 283 0.0 2.0 0.00 0.00 0.00 41 1009.3
20260903232022 97 265 1.0 3.0 0.00 0.00 0.00 41 1009.3
20260903231523 97 179 1.0 3.0 0.00 0.00 0.00 41 1009.2
20260903231023 97 168 1.0 3.0 0.00 0.00 0.00 40 1009.0
20260903230525 97 188 0.0 2.0 0.00 0.00 0.00 40 1009.1
20260903230020 98 167 1.0 2.0 0.00 0.00 0.00 41 1009.2
20260903225523 98 149 1.0 4.0 0.00 0.00 0.00 40 1009.0
20260903225023 98 268 1.0 3.0 0.00 0.00 0.00 39 1008.8
20260903224525 98 148 1.0 3.0 0.00 0.00 0.00 39 1008.7
20260903224024 98 159 1.0 2.0 0.00 0.00 0.00 38 1008.6
20260903223545 98 156 1.0 4.0 0.00 0.00 0.00 39 1008.7
20260903223021 98 150 1.0 3.0 0.00 0.00 0.00 39 1008.7
20260903222523 98 251 1.0 4.0 0.00 0.00 0.00 39 1008.8
20260903222020 98 138 1.0 3.0 0.00 0.00 0.00 39 1008.8
20260903221520 99 162 1.0 4.0 0.00 0.00 0.00 38 1008.6
20260903221021 99 138 2.0 9.0 0.00 0.00 0.00 38 1008.5
20260903220526 100 151 1.0 3.0 0.00 0.00 0.00 37 1008.3
20260903220044 100 167 1.0 3.0 0.00 0.00 0.00 37 1008.3
20260903215526 100 322 1.0 3.0 0.00 0.00 0.00 37 1008.2
20260903215021 99 298 0.0 2.0 0.00 0.00 0.00 38 1008.6
20260903214522 99 153 2.0 5.0 0.00 0.00 0.00 38 1008.7
20260903214022 99 137 1.0 4.0 0.00 0.00 0.00 38 1008.8
20260903213524 99 151 1.0 4.0 0.00 0.00 0.00 39 1008.8
20260903213022 99 166 1.0 4.0 0.00 0.00 0.00 39 1008.9
20260903212541 99 293 1.0 2.0 0.00 0.00 0.00 38 1008.8
20260903212021 99 182 1.0 4.0 0.00 0.00 0.00 39 1008.9
20260903211522 99 169 1.0 3.0 0.00 0.00 0.00 39 1009.0
20260903211023 99 148 1.0 4.0 0.00 0.00 0.00 39 1009.0
20260903210542 99 214 1.0 3.0 0.00 0.00 0.00 39 1009.0
20260903210022 99 146 1.0 3.0 0.00 0.00 0.00 38 1009.0
20260903205523 99 151 2.0 6.0 0.00 0.00 0.00 40 1009.2
20260903205044 99 119 1.0 3.0 0.00 0.00 0.00 38 1009.0
20260903204542 99 163 1.0 3.0 0.00 0.00 0.00 38 1008.9
20260903204022 99 183 1.0 4.0 0.00 0.00 0.00 38 1008.9
20260903203522 99 198 1.0 3.0 0.00 0.00 0.00 38 1009.0
20260903203023 99 277 1.0 4.0 0.00 0.00 0.00 39 1009.2
20260903202523 99 281 2.0 5.0 0.00 0.00 0.00 39 1009.4
20260903202023 98 165 1.0 3.0 0.00 0.00 0.00 40 1009.6
20260903201543 98 141 1.0 3.0 0.00 0.00 0.00 40 1009.6
20260903201023 98 143 1.0 3.0 0.00 0.00 0.00 40 1009.5
20260903200544 99 161 1.0 3.0 0.00 0.00 0.00 39 1009.5
20260903200024 99 165 1.0 4.0 0.00 0.00 0.00 39 1009.4
20260903195528 99 135 2.0 5.0 0.00 0.00 0.00 40 1009.7
20260903195022 99 151 2.0 5.0 0.00 0.00 0.00 40 1009.8
20260903194523 99 151 2.0 6.0 0.00 0.00 0.00 40 1009.8
20260903194020 99 147 1.0 5.0 0.00 0.00 0.00 40 1010.0
20260903193544 99 265 2.0 4.0 0.00 0.00 0.00 42 1010.3
20260903193026 99 287 2.0 4.0 0.00 0.00 0.00 41 1010.2
20260903192525 98 280 1.0 2.0 0.00 0.00 0.00 42 1010.6
20260903192024 98 145 1.0 3.0 0.00 0.00 0.00 43 1010.9
20260903191524 99 148 1.0 4.0 0.00 0.00 0.00 42 1010.6
20260903191026 99 278 1.0 4.0 0.00 0.00 0.00 42 1010.6
20260903190523 99 250 1.0 4.0 0.00 0.00 0.00 41 1010.4
20260903190021 99 193 1.0 4.0 0.00 0.00 0.00 42 1010.8
20260903185521 99 160 1.0 4.0 0.00 0.00 0.00 41 1010.4
20260903185021 99 137 1.0 5.0 0.00 0.00 0.00 41 1010.5
20260903184525 98 154 2.0 4.0 0.00 0.00 0.00 42 1010.6
20260903184046 98 157 1.0 4.0 0.00 0.00 0.00 42 1010.8
20260903183522 99 124 2.0 4.0 0.00 0.00 0.00 40 1010.2
20260903183022 100 119 2.0 4.0 0.00 0.00 0.00 39 1010.0
20260903182522 100 148 1.0 4.0 0.00 0.00 0.00 41 1010.4
20260903182022 99 185 1.0 3.0 0.00 0.00 0.00 41 1010.4
20260903181522 100 155 1.0 5.0 0.00 0.00 0.00 42 1010.6
20260903181022 100 151 1.0 5.0 0.00 0.00 0.00 42 1010.7
20260903180523 100 152 2.0 5.0 0.00 0.00 0.00 41 1010.7
20260903180022 100 160 1.0 4.0 0.00 0.00 0.00 42 1010.8
20260903175522 101 168 1.0 3.0 0.00 0.00 0.00 41 1010.6
20260903175022 101 129 1.0 3.0 0.00 0.00 0.00 41 1010.8